Istanbul, Turkey

6:01 PM +03 on May 27, 2017 (GMT +0300)
Ataturk

Weather History for LTBA - January, 2012

Change the Weather History Date:

Thursday, January 26, 2012

  Actual Average Record
Temperature  
Mean Temperature 42 °F -  
Max Temperature 53 °F 47 °F 59 °F (2002)
Min Temperature 32 °F 37 °F 24 °F (2000)
Degree Days  
Heating Degree Days 22    
Moisture  
Dew Point 41 °F    
Average Humidity 84    
Maximum Humidity 100    
Minimum Humidity 63    
Precipitation  
Precipitation 0.08 in - - ()
Sea Level Pressure  
Sea Level Pressure 29.66 in    
Wind  
Wind Speed 9 mph ()    
Max Wind Speed 36 mph    
Max Gust Speed 45 mph    
Visibility 5.4 miles    
Events Rain , Snow    
Averages and records for this station are not official NWS values.
T = Trace of Precipitation, MM = Missing Value Source: Averaged Metar Reports

Daily Weather History Graph

Daily Weather History Graph

Search for Another Location

Airport or City:

Trip Planner

Search our weather history database for the weather conditions in past years. The results will help you decide how hot, cold, wet, or windy it might be!

Date:

Astronomy

Jan. 26, 2012 Rise Set
Actual Time 7:21 AM EET 5:13 PM EET
Civil Twilight 6:51 AM EET 5:43 PM EET
Nautical Twilight 6:18 AM EET 6:16 PM EET
Astronomical Twilight 5:45 AM EET 6:48 PM EET
Moon 8:37 AM EET (1/26) 8:48 PM EET (1/26)
Length of Visible Light 10h 51m
Length of Day
9h 52m
Waxing Crescent, 10% of the Moon is Illuminated
Jan 26
Waxing Crescent
Jan 31
First Quarter
Feb 7
Full
Feb 14
Last Quarter
Feb 22
New

Hourly Weather History & Observations

Time (EET) Temp. Windchill Dew Point Humidity Pressure Visibility Wind Dir Wind Speed Gust Speed Precip Events Conditions
12:20 AM 50.0 °F - 41.0 °F 71% 29.56 in 6.2 mi East 6.9 mph - N/A Rain Light Rain Showers
12:50 AM 48.2 °F - 41.0 °F 76% 29.56 in 6.2 mi East 5.8 mph - N/A   Mostly Cloudy
1:20 AM 48.2 °F - 41.0 °F 76% 29.56 in 6.2 mi East 6.9 mph - N/A   Mostly Cloudy
1:50 AM 50.0 °F - 41.0 °F 71% 29.56 in 6.2 mi ENE 4.6 mph - N/A   Mostly Cloudy
2:00 AM 49 °F - 41 °F 66% 29.58 in 6 mi ENE 4.6 mph - -   Partly Cloudy
2:20 AM 50.0 °F - 41.0 °F 71% 29.56 in 6.2 mi NE 6.9 mph - N/A   Mostly Cloudy
2:50 AM 50.0 °F - 41.0 °F 71% 29.56 in 6.2 mi NE 6.9 mph - N/A   Mostly Cloudy
3:20 AM 50.0 °F - 41.0 °F 71% 29.53 in 6.2 mi NE 5.8 mph - N/A   Mostly Cloudy
3:50 AM 50.0 °F - 41.0 °F 71% 29.53 in 6.2 mi Variable 2.3 mph - N/A Rain Light Rain Showers
4:20 AM 50.0 °F - 41.0 °F 71% 29.53 in 6.2 mi ENE 4.6 mph - N/A Rain Light Rain Showers
4:50 AM 50.0 °F - 42.8 °F 76% 29.53 in 5.6 mi East 5.8 mph - N/A Rain Light Rain Showers
5:20 AM 48.2 °F - 42.8 °F 82% 29.56 in 6.2 mi East 3.5 mph - N/A Rain Light Rain Showers
5:50 AM 48.2 °F - 44.6 °F 87% 29.56 in 6.2 mi Variable 2.3 mph - N/A Rain Light Rain Showers
6:20 AM 46.4 °F - 46.4 °F 100% 29.59 in 6.2 mi WSW 1.2 mph - N/A Rain Light Rain Showers
6:50 AM 46.4 °F - 46.4 °F 100% 29.59 in 6.2 mi Variable 2.3 mph - N/A Rain Light Rain Showers
7:20 AM 46.4 °F - 46.4 °F 100% 29.59 in 4.3 mi Variable 2.3 mph - N/A Rain Light Rain Showers
7:50 AM 46.4 °F - 46.4 °F 100% 29.59 in 1.9 mi Variable 2.3 mph - N/A Rain Rain Showers
8:00 AM 46 °F - 46 °F 100% 29.62 in 2 mi ENE 2.3 mph - - Rain Heavy Rain Showers
8:20 AM 46.4 °F - 46.4 °F 100% 29.59 in 2.5 mi Variable 1.2 mph - N/A Rain Light Rain Showers
8:50 AM 50.0 °F - 48.2 °F 94% 29.62 in 2.5 mi Variable 5.8 mph - N/A Rain Light Rain Showers
9:20 AM 51.8 °F - 46.4 °F 82% 29.62 in 1.9 mi ESE 4.6 mph - N/A Rain Rain Showers
9:50 AM 50.0 °F - 46.4 °F 87% 29.62 in 4.3 mi ESE 5.8 mph - N/A Rain Light Rain Showers
10:20 AM 50.0 °F - 48.2 °F 94% 29.62 in 6.2 mi ESE 6.9 mph - N/A Rain Light Rain Showers
10:50 AM 50.0 °F - 48.2 °F 94% 29.65 in 6.2 mi SE 5.8 mph - N/A Rain Light Rain Showers
11:20 AM 51.8 °F - 48.2 °F 88% 29.65 in 4.3 mi SSE 9.2 mph - N/A Rain Light Rain Showers
11:50 AM 51.8 °F - 46.4 °F 82% 29.62 in 4.3 mi ESE 6.9 mph - N/A Rain Light Rain Showers
12:20 PM 50.0 °F - 44.6 °F 82% 29.62 in 6.2 mi SSE 9.2 mph - N/A Rain Light Rain Showers
12:50 PM 51.8 °F - 44.6 °F 76% 29.62 in 6.2 mi South 4.6 mph - N/A Rain Light Rain Showers
1:20 PM 51.8 °F - 42.8 °F 71% 29.65 in 6.2 mi SSW 6.9 mph - N/A   Mostly Cloudy
1:50 PM 51.8 °F - 44.6 °F 76% 29.65 in 6.2 mi SW 6.9 mph - N/A   Mostly Cloudy
2:00 PM 51 °F - 42 °F 63% 29.67 in 6 mi SW 6.9 mph - - Rain Light Rain Showers
2:50 PM 50.0 °F - 44.6 °F 82% 29.65 in 6.2 mi WSW 6.9 mph - N/A   Mostly Cloudy
3:20 PM 51.8 °F - 42.8 °F 71% 29.65 in 6.2 mi West 8.1 mph - N/A   Mostly Cloudy
3:50 PM 50.0 °F - 41.0 °F 71% 29.68 in 6.2 mi WSW 6.9 mph - N/A   Mostly Cloudy
4:20 PM 48.2 °F - 42.8 °F 82% 29.68 in 6.2 mi West 6.9 mph - N/A   Mostly Cloudy
4:50 PM 48.2 °F - 42.8 °F 82% 29.68 in 6.2 mi West 9.2 mph - N/A   Mostly Cloudy
5:20 PM 42.8 °F 33.5 °F 39.2 °F 87% 29.71 in 6.2 mi NW 23.0 mph - N/A   Mostly Cloudy
5:50 PM 39.2 °F 28.3 °F 37.4 °F 93% 29.74 in 6.2 mi NNW 25.3 mph - N/A   Mostly Cloudy
6:20 PM 37.4 °F 25.6 °F 35.6 °F 93% 29.74 in 6.2 mi NNW 26.5 mph - N/A   Mostly Cloudy
6:50 PM 35.6 °F 22.5 °F 33.8 °F 93% 29.77 in 6.2 mi NNW 29.9 mph - N/A   Mostly Cloudy
7:20 PM 35.6 °F 23.0 °F 33.8 °F 93% 29.77 in 6.2 mi NNW 27.6 mph 39.1 mph N/A   Mostly Cloudy
7:50 PM 35.6 °F 22.5 °F 33.8 °F 93% 29.80 in 6.2 mi NNW 29.9 mph - N/A   Mostly Cloudy
8:00 PM 35 °F - 33 °F 89% 29.82 in 6 mi NNW 29.9 mph - -   Mostly Cloudy
8:20 PM 33.8 °F 19.9 °F 32.0 °F 93% 29.80 in 6.2 mi NNW 31.1 mph - N/A   Mostly Cloudy
8:50 PM 33.8 °F 19.4 °F 32.0 °F 93% 29.80 in 6.2 mi NNW 33.4 mph 44.9 mph N/A   Mostly Cloudy
9:20 PM 33.8 °F 19.9 °F 30.2 °F 87% 29.83 in 6.2 mi NNW 31.1 mph 44.9 mph N/A   Mostly Cloudy
9:50 PM 33.8 °F 19.0 °F 30.2 °F 87% 29.83 in 6.2 mi NNW 35.7 mph - N/A   Mostly Cloudy
10:20 PM 32.0 °F 17.2 °F 30.2 °F 93% 29.86 in 3.7 mi NNW 32.2 mph - N/A Snow Light Snow Showers
10:50 PM 32.0 °F 17.6 °F 28.4 °F 87% 29.89 in 3.7 mi NNW 29.9 mph - N/A Snow Light Snow Showers
11:20 PM 32.0 °F 17.9 °F 28.4 °F 87% 29.89 in 3.7 mi NNW 28.8 mph - N/A Snow Light Snow Showers
11:50 PM 32.0 °F 17.6 °F 28.4 °F 87% 29.92 in 3.7 mi NNW 29.9 mph - N/A Snow Light Snow Showers